Stündliche Wetter Abapo

Heute, 2 August, Montag

Zeit Temperatur Niederschläge Wind Luftdruck Luftfeuchtigkeit
00:00 +16°C° 0 mm 1 m/S 720 mmHg 37%
01:00 +16°C° 0 mm 1 m/S 720 mmHg 38%
02:00 +15°C° 0 mm 1 m/S 720 mmHg 39%
03:00 +14°C° 0 mm 1 m/S 719 mmHg 41%
04:00 +14°C° 0 mm 1 m/S 719 mmHg 43%
05:00 +13°C° 0 mm 1 m/S 719 mmHg 46%
06:00 +14°C° 0 mm 1 m/S 719 mmHg 43%
07:00 +15°C° 0 mm 1 m/S 720 mmHg 40%
08:00 +16°C° 0 mm 1 m/S 720 mmHg 37%
09:00 +20°C° 0 mm 1 m/S 720 mmHg 30%
10:00 +24°C° 0 mm 1 m/S 720 mmHg 24%
11:00 +27°C° 0 mm 1 m/S 721 mmHg 18%
12:00 +28°C° 0 mm 1 m/S 720 mmHg 18%
13:00 +29°C° 0 mm 2 m/S 718 mmHg 17%
14:00 +29°C° 0 mm 2 m/S 717 mmHg 17%
15:00 +29°C° 0 mm 2 m/S 717 mmHg 17%
16:00 +28°C° 0 mm 2 m/S 716 mmHg 18%
17:00 +28°C° 0 mm 2 m/S 716 mmHg 19%
18:00 +25°C° 0 mm 2 m/S 716 mmHg 24%
19:00 +21°C° 0 mm 2 m/S 717 mmHg 29%
20:00 +19°C° 0 mm 1 m/S 717 mmHg 34%
21:00 +18°C° 0 mm 1 m/S 717 mmHg 36%
22:00 +16°C° 0 mm 1 m/S 718 mmHg 38%
23:00 +15°C° 0 mm 1 m/S 718 mmHg 40%

Morgen, 3 August, Dienstag

Zeit Temperatur Niederschläge Wind Luftdruck Luftfeuchtigkeit
00:00 +15°C° 0 mm 1 m/S 718 mmHg 42%
01:00 +14°C° 0 mm 1 m/S 717 mmHg 43%
02:00 +14°C° 0 mm 1 m/S 717 mmHg 45%
03:00 +13°C° 0 mm 1 m/S 717 mmHg 46%
04:00 +13°C° 0 mm 1 m/S 716 mmHg 47%
05:00 +12°C° 0 mm 1 m/S 716 mmHg 48%
06:00 +14°C° 0 mm 1 m/S 717 mmHg 45%
07:00 +15°C° 0 mm 1 m/S 717 mmHg 41%
08:00 +18°C° 0 mm 1 m/S 718 mmHg 38%
09:00 +21°C° 0 mm 1 m/S 718 mmHg 32%
10:00 +24°C° 0 mm 1 m/S 718 mmHg 26%
11:00 +27°C° 0 mm 1 m/S 718 mmHg 21%
12:00 +28°C° 0 mm 2 m/S 717 mmHg 20%
13:00 +28°C° 0 mm 2 m/S 716 mmHg 20%
14:00 +29°C° 0 mm 2 m/S 716 mmHg 20%
15:00 +29°C° 0 mm 2 m/S 715 mmHg 21%
16:00 +28°C° 0 mm 2 m/S 715 mmHg 21%
17:00 +28°C° 0 mm 2 m/S 714 mmHg 22%
18:00 +26°C° 0 mm 2 m/S 715 mmHg 27%
19:00 +23°C° 0 mm 2 m/S 715 mmHg 32%
20:00 +20°C° 0 mm 1 m/S 716 mmHg 37%
21:00 +20°C° 0 mm 1 m/S 716 mmHg 39%
22:00 +19°C° 0 mm 1 m/S 717 mmHg 41%
23:00 +18°C° 0 mm 1 m/S 717 mmHg 43%

übermorgen, 4 August, Mittwoch

Zeit Temperatur Niederschläge Wind Luftdruck Luftfeuchtigkeit
00:00 +18°C° 0 mm 1 m/S 717 mmHg 44%
01:00 +16°C° 0 mm 1 m/S 717 mmHg 45%
02:00 +16°C° 0 mm 1 m/S 716 mmHg 46%
03:00 +16°C° 0 mm 1 m/S 716 mmHg 47%
04:00 +15°C° 0 mm 1 m/S 716 mmHg 48%
05:00 +15°C° 0 mm 1 m/S 716 mmHg 50%
06:00 +16°C° 0 mm 1 m/S 717 mmHg 47%
07:00 +18°C° 0 mm 1 m/S 717 mmHg 44%
08:00 +19°C° 0 mm 1 m/S 718 mmHg 41%
09:00 +22°C° 0 mm 1 m/S 718 mmHg 35%
10:00 +25°C° 0 mm 1 m/S 718 mmHg 30%
11:00 +27°C° 0 mm 1 m/S 718 mmHg 25%
12:00 +28°C° 0 mm 1 m/S 717 mmHg 25%
13:00 +28°C° 0 mm 1 m/S 716 mmHg 25%
14:00 +28°C° 0 mm 1 m/S 715 mmHg 24%
15:00 +28°C° 0 mm 1 m/S 715 mmHg 26%
16:00 +27°C° 0 mm 1 m/S 715 mmHg 27%
17:00 +27°C° 0 mm 1 m/S 714 mmHg 28%
18:00 +25°C° 0 mm 1 m/S 715 mmHg 32%
19:00 +23°C° 0 mm 1 m/S 715 mmHg 35%
20:00 +20°C° 0 mm 2 m/S 716 mmHg 38%
21:00 +21°C° 0 mm 1 m/S 716 mmHg 41%
22:00 +20°C° 0 mm 1 m/S 716 mmHg 43%
23:00 +19°C° 0 mm 1 m/S 716 mmHg 45%

5 August, Donnerstag

Zeit Temperatur Niederschläge Wind Luftdruck Luftfeuchtigkeit
00:00 +18°C° 0 mm 1 m/S 716 mmHg 48%
01:00 +16°C° 0 mm 1 m/S 716 mmHg 50%
02:00 +16°C° 0 mm 1 m/S 715 mmHg 52%
03:00 +16°C° 0 mm 1 m/S 715 mmHg 53%
04:00 +15°C° 0 mm 1 m/S 715 mmHg 53%
05:00 +15°C° 0 mm 1 m/S 715 mmHg 54%
06:00 +16°C° 0 mm 1 m/S 715 mmHg 50%
07:00 +19°C° 0 mm 1 m/S 716 mmHg 47%
08:00 +20°C° 0 mm 1 m/S 716 mmHg 43%
09:00 +23°C° 0 mm 1 m/S 716 mmHg 36%
10:00 +26°C° 0 mm 1 m/S 716 mmHg 29%
11:00 +30°C° 0 mm 1 m/S 716 mmHg 22%
12:00 +31°C° 0 mm 2 m/S 715 mmHg 21%
13:00 +33°C° 0 mm 3 m/S 714 mmHg 20%
14:00 +34°C° 0 mm 3 m/S 713 mmHg 19%
15:00 +34°C° 0 mm 4 m/S 712 mmHg 19%
16:00 +33°C° 0 mm 4 m/S 712 mmHg 20%
17:00 +33°C° 0 mm 4 m/S 711 mmHg 20%
18:00 +29°C° 0 mm 3 m/S 712 mmHg 26%
19:00 +26°C° 0 mm 2 m/S 712 mmHg 32%
20:00 +23°C° 0 mm 1 m/S 713 mmHg 38%
21:00 +22°C° 0 mm 1 m/S 713 mmHg 41%
22:00 +21°C° 0 mm 1 m/S 713 mmHg 44%
23:00 +20°C° 0 mm 1 m/S 714 mmHg 46%

6 August, Freitag

Zeit Temperatur Niederschläge Wind Luftdruck Luftfeuchtigkeit
00:00 +18°C° 0 mm 2 m/S 714 mmHg 48%
01:00 +18°C° 0 mm 2 m/S 714 mmHg 50%
02:00 +17°C° 0 mm 2 m/S 714 mmHg 51%
03:00 +17°C° 0 mm 2 m/S 714 mmHg 52%
04:00 +17°C° 0 mm 2 m/S 714 mmHg 54%
05:00 +16°C° 0 mm 2 m/S 714 mmHg 55%
06:00 +19°C° 0 mm 1 m/S 714 mmHg 51%
07:00 +20°C° 0 mm 1 m/S 714 mmHg 46%
08:00 +21°C° 0 mm 1 m/S 715 mmHg 42%
09:00 +25°C° 0 mm 1 m/S 715 mmHg 35%
10:00 +29°C° 0 mm 1 m/S 715 mmHg 28%
11:00 +33°C° 0 mm 1 m/S 715 mmHg 21%
12:00 +35°C° 0 mm 2 m/S 713 mmHg 20%
13:00 +36°C° 0 mm 3 m/S 712 mmHg 19%
14:00 +37°C° 0 mm 4 m/S 711 mmHg 17%
15:00 +37°C° 0 mm 5 m/S 710 mmHg 18%
16:00 +36°C° 0 mm 5 m/S 710 mmHg 18%
17:00 +36°C° 0 mm 5 m/S 709 mmHg 19%
18:00 +34°C° 0 mm 4 m/S 709 mmHg 23%
19:00 +30°C° 0 mm 4 m/S 710 mmHg 28%
20:00 +28°C° 0 mm 3 m/S 710 mmHg 32%
21:00 +26°C° 0 mm 2 m/S 710 mmHg 36%
22:00 +25°C° 0 mm 2 m/S 711 mmHg 39%
23:00 +23°C° 0 mm 1 m/S 711 mmHg 43%

7 August, Samstag

Zeit Temperatur Niederschläge Wind Luftdruck Luftfeuchtigkeit
00:00 +22°C° 0 mm 1 m/S 710 mmHg 45%
01:00 +21°C° 0 mm 1 m/S 710 mmHg 48%
02:00 +20°C° 0 mm 1 m/S 710 mmHg 51%
03:00 +20°C° 0 mm 1 m/S 709 mmHg 52%
04:00 +20°C° 0 mm 1 m/S 709 mmHg 53%
05:00 +19°C° 0 mm 1 m/S 709 mmHg 54%
06:00 +21°C° 0 mm 1 m/S 710 mmHg 50%
07:00 +22°C° 0 mm 1 m/S 710 mmHg 45%
08:00 +24°C° 0 mm 1 m/S 711 mmHg 41%
09:00 +28°C° 0 mm 1 m/S 711 mmHg 34%
10:00 +32°C° 0 mm 2 m/S 711 mmHg 27%
11:00 +37°C° 0 mm 2 m/S 711 mmHg 20%
12:00 +38°C° 0 mm 3 m/S 710 mmHg 18%
13:00 +41°C° 0 mm 4 m/S 709 mmHg 16%
14:00 +42°C° 0 mm 4 m/S 708 mmHg 14%
15:00 +41°C° 0 mm 5 m/S 708 mmHg 15%
16:00 +40°C° 0 mm 5 m/S 707 mmHg 16%
17:00 +39°C° 0 mm 6 m/S 707 mmHg 17%
18:00 +36°C° 0 mm 5 m/S 707 mmHg 21%
19:00 +34°C° 0 mm 4 m/S 708 mmHg 24%
20:00 +32°C° 0 mm 4 m/S 708 mmHg 28%
21:00 +29°C° 0 mm 3 m/S 709 mmHg 31%
22:00 +28°C° 0 mm 3 m/S 709 mmHg 33%
23:00 +27°C° 0 mm 3 m/S 709 mmHg 36%
Mehr zeigen

Wir brauchen deine Erlaubnis

Meteoprog und unser Service Anbieter werden persönliche Daten aufbewahren, so wie Cookies, Geräte Bezeichnung oder ähnliche Technologien von deinem Gerät und Prozess, so wie Persönliche Daten Inhalte und Werbungen, genauso wie social Media und den Verkehr zu analysieren.

  • Aufbewahrung und/oder Zugang zu deiner Geräte Informationen.

    Cookies, Geräte Bezeichnung oder andere Informationen, können aufbewahrt oder Zugang zu deinem Gerät erhalten, für den Grund, der oben angegeben wird.

  • Personalisierte Werbung und Inhalte, Messungen, Einblick in das Publikum und Produkt Entwicklung.

    Werbungen und Inhalte können personalisiert werden, basierend auf ein Profil. Mehr Daten können besser personalisierte Werbungen und Inhalte hinzufügen. Werbung und Inhalte können gezeigt und gemessen werden. Einblicke über das Publikum, welche die Werbung gesehen haben und den Inhalt, können abgeleitet werden. So wie Daten können genutzt werden, um es zu verbessern oder die Benutzer Erfahrung zu verbessern das System und die Software.

Wenn du “Ich stimme zu” klickst, erlaubst du uns, die Cookies zu benutzen die Geräte Bezeichnung, den Web oder ähnliche Technologien zu benutzen. Deine Settings, können in deinem Gerät bei deinem Browser geändert werden.

Für den bestimmten Zweck, berechtigten Interessen beruhen darauf, mehr als auf den Inhalt. Du kannst mehr darüber in unseren Privaten und Cookie Politik lesen.